This demonstration page uses our WeatherBlox Daily Observations layout. Learn more.

Left ArrowRight Arrow

40.92945, -100.16068

Hourly Observations for April 2, 2016

Temp ( °F °C ) Dew Point ( °F °C ) Humidity (%) Winds ( mph kmh ) Pressure ( in mb ) Visibility ( mi km ) Precip ( " mm )
12:15 am 00:15 Clear 29 -1.9 14 -10 54 54 WSW 7 11 30.15 1021 10 16 N/A
12:35 am 00:35 Clear 28 -2 15 -9.7 56 56 WSW 3 6 30.18 1022 10 16 N/A
12:55 am 00:55 Clear 30 -1.1 14 -9.8 52 52 W 5 7 30.15 1021 10 16 N/A
1:15 am 01:15 Clear 28 -2.5 17 -8.6 63 63 W 5 7 30.18 1022 10 16 N/A
1:35 am 01:35 Clear 25 -4 14 -10.1 63 63 WNW 5 7 30.18 1022 10 16 N/A
1:55 am 01:55 Clear 25 -4.1 13 -10.3 62 62 NW 5 7 30.18 1022 10 16 N/A
2:15 am 02:15 Clear 25 -3.7 14 -9.9 63 63 WNW 5 7 30.18 1022 10 16 N/A
2:35 am 02:35 Clear 23 -5.1 13 -10.4 67 67 NW 8 13 30.21 1023 10 16 N/A
2:55 am 02:55 Clear 25 -4 15 -9.5 66 66 NW 9 15 30.18 1022 10 16 N/A
3:15 am 03:15 Clear 24 -4.7 15 -9.3 71 71 NW 7 11 30.18 1022 10 16 N/A
3:35 am 03:35 Clear 24 -4.3 16 -8.9 71 71 NW 9 15 30.18 1022 10 16 N/A
3:55 am 03:55 Clear 24 -4.3 17 -8.4 73 73 WNW 8 13 30.18 1022 10 16 N/A
4:15 am 04:15 Clear 24 -4.4 17 -8.2 75 75 NW 8 13 30.18 1022 10 16 N/A
4:35 am 04:35 Clear 24 -4.3 18 -8 76 76 NW 8 13 30.18 1022 10 16 N/A
4:55 am 04:55 Partly Cloudy 27 -2.9 21 -6 79 79 WNW 9 15 30.18 1022 10 16 N/A
5:15 am 05:15 Mostly Cloudy 31 -0.8 24 -4.5 76 76 NW 10 17 30.15 1021 10 16 N/A
5:35 am 05:35 Cloudy 32 undefined 25 -4.1 74 74 WNW 9 15 30.15 1021 10 16 N/A
5:55 am 05:55 Cloudy 33 0.7 26 -3.4 74 74 NW 13 20 30.15 1021 10 16 N/A
6:15 am 06:15 Cloudy 35 1.5 27 -2.9 73 73 WNW 12 19 30.12 1020 10 16 N/A
6:35 am 06:35 Cloudy 36 2.2 28 -2.5 71 71 WNW 10 17 30.12 1020 10 16 N/A
6:55 am 06:55 Cloudy 37 2.5 28 -2.1 72 72 WNW 10 17 30.12 1020 10 16 N/A
7:15 am 07:15 Mostly Cloudy 37 2.5 28 -2.1 72 72 WNW 9 15 30.12 1020 10 16 N/A
7:35 am 07:35 Mostly Cloudy 36 2.3 28 -2 74 74 WNW 10 17 30.12 1020 10 16 N/A
7:55 am 07:55 Partly Cloudy 36 2.2 29 -1.9 75 75 NW 9 15 30.15 1021 10 16 N/A
8:15 am 08:15 Sunny 38 3.2 30 -1.3 73 73 NW 9 15 30.15 1021 10 16 N/A
8:35 am 08:35 Sunny 40 4.5 31 -0.7 69 69 NW 12 19 30.12 1020 10 16 N/A
8:55 am 08:55 Sunny 43 5.9 31 -0.3 65 65 NW 12 19 30.15 1021 10 16 N/A
9:15 am 09:15 Sunny 45 7.3 32 undefined 60 60 NW 14 22 30.15 1021 10 16 N/A
9:35 am 09:35 Partly Cloudy 47 8.4 32 undefined 56 56 NW 13 20 30.12 1020 10 16 N/A
9:55 am 09:55 Mostly Cloudy 49 9.2 32 0.1 53 53 NNW 10 17 30.12 1020 10 16 N/A
10:15 am 10:15 Partly Cloudy 52 11 33 0.5 49 49 N 8 13 30.09 1019 10 16 N/A
10:35 am 10:35 Partly Cloudy 54 12.1 30 -1 41 41 N 10 17 30.09 1019 10 16 N/A
10:55 am 10:55 Sunny 55 12.5 29 -1.8 37 37 N 10 17 30.09 1019 10 16 N/A
11:15 am 11:15 Sunny 55 12.8 30 -1 39 39 NNW 12 19 30.09 1019 10 16 N/A
11:35 am 11:35 Sunny 56 13.5 31 -0.3 39 39 NNW 10 17 30.09 1019 10 16 N/A
11:55 am 11:55 Sunny 57 14 31 -0.4 37 37 NNW 10 17 30.09 1019 10 16 N/A
12:15 pm 12:15 Sunny 58 14.6 31 -0.3 36 36 N 7 11 30.06 1018 10 16 N/A
12:35 pm 12:35 Sunny 59 15.1 32 -0.1 36 36 N 6 9 30.06 1018 10 16 N/A
12:55 pm 12:55 Sunny 60 15.7 32 undefined 35 35 NW 14 22 30.06 1018 10 16 N/A
1:15 pm 13:15 Sunny 62 16.5 31 -0.3 32 32 NW 13 20 30.06 1018 10 16 N/A
1:35 pm 13:35 Sunny 61 16.3 31 -0.6 32 32 NW 14 22 30.06 1018 10 16 N/A
1:55 pm 13:55 Sunny 62 16.4 30 -1 31 31 NNW 12 19 30.06 1018 10 16 N/A
2:15 pm 14:15 Sunny 62 16.8 30 -1.3 29 29 N 9 15 30.06 1018 10 16 N/A
2:35 pm 14:35 Sunny 63 17.4 30 -1.2 28 28 NW 14 22 30.03 1017 10 16 N/A
2:55 pm 14:55 Sunny 63 17.2 30 -1 29 29 NW 10 17 30.00 1016 10 16 N/A
3:15 pm 15:15 Sunny 63 17.3 28 -2 27 27 NNE 8 13 30.00 1016 10 16 N/A
3:35 pm 15:35 Sunny 64 17.5 29 -1.7 27 27 NW 8 13 30.00 1016 10 16 N/A
3:55 pm 15:55 Sunny 64 17.5 28 -2 27 27 WNW 5 7 30.00 1016 10 16 N/A
4:15 pm 16:15 Sunny 64 18 29 -1.6 27 27 W 9 15 30.00 1016 10 16 N/A
4:35 pm 16:35 Sunny 65 18.1 29 -1.7 26 26 W 7 11 29.97 1015 10 16 N/A
4:55 pm 16:55 Sunny 65 18.1 28 -2 26 26 W 7 11 29.97 1015 10 16 N/A
5:15 pm 17:15 Sunny 65 18.1 28 -2.1 25 25 WNW 6 9 29.97 1015 10 16 N/A
5:35 pm 17:35 Sunny 65 18.3 28 -2.3 25 25 W 7 11 29.97 1015 10 16 N/A
5:55 pm 17:55 Sunny 65 18.3 29 -1.4 26 26 W 6 9 29.97 1015 10 16 N/A
6:15 pm 18:15 Sunny 65 18.1 29 -1.4 27 27 WNW 9 15 29.97 1015 10 16 N/A
6:35 pm 18:35 Sunny 64 18 28 -2.3 25 25 NW 7 11 29.97 1015 10 16 N/A
6:55 pm 18:55 Sunny 64 17.7 29 -1.7 27 27 W 6 9 29.97 1015 10 16 N/A
7:15 pm 19:15 Sunny 63 17.1 29 -1.9 27 27 WSW 5 7 29.97 1015 10 16 N/A
7:35 pm 19:35 Sunny 62 16.6 26 -3.2 26 26 WSW 3 6 30.00 1016 10 16 N/A
7:55 pm 19:55 Sunny 60 15.4 27 -2.6 29 29 SSW 5 7 30.00 1016 10 16 N/A
8:15 pm 20:15 Clear 56 13.4 27 -2.6 33 33 S 5 7 30.03 1017 10 16 N/A
8:35 pm 20:35 Clear 56 13.2 27 -2.8 33 33 SSE 5 7 30.03 1017 10 16 N/A
8:55 pm 20:55 Clear 50 10.1 28 -2.3 42 42 SSE 7 11 30.06 1018 10 16 N/A
9:15 pm 21:15 Clear 49 9.6 28 -2.4 43 43 S 7 11 30.06 1018 7 11 N/A
9:35 pm 21:35 Clear 49 9.3 26 -3.1 42 42 SSE 7 11 30.06 1018 7 11 N/A
9:55 pm 21:55 Clear 47 8.5 28 -2.2 47 47 S 8 13 30.06 1018 7 11 N/A
10:15 pm 22:15 Clear 46 7.5 28 -2.4 50 50 S 8 13 30.06 1018 10 16 N/A
10:35 pm 22:35 Clear 44 6.4 28 -2.4 54 54 S 9 15 30.06 1018 10 16 N/A
10:55 pm 22:55 Clear 43 5.9 28 -2.2 56 56 S 7 11 30.06 1018 10 16 N/A
11:15 pm 23:15 Clear 44 6.6 28 -2.1 54 54 SSW 8 13 30.06 1018 10 16 N/A
11:35 pm 23:35 Clear 50 9.9 30 -1.1 47 47 SSW 13 20 30.03 1017 10 16 N/A
11:55 pm 23:55 Clear 51 10.6 30 -1.3 44 44 SSW 14 22 30.00 1016 10 16 N/A

Powered by AerisWeather